Regional Weather Roundup
Issued by NWS

Home | Current Version | Previous Version | Text Only | Print | Product List | Glossary Off
Versions: 1 2 3 4 5 6 7 8 9 10 11 12 13 14 15 16 17 18 19 20 21 22 23 24 25 26 27 28 29 30 31 32 33 34 35 36 37 38 39 40 41 42 43 44 45 46 47 48 49 50

000
ASUS43 KMKX 292311
RWRWI

WISCONSIN REGIONAL WEATHER ROUNDUP
NATIONAL WEATHER SERVICE MILWAUKEE/SULLIVAN WI
600 PM CDT MON AUG 29 2016

NOTE: "FAIR" INDICATES FEW OR NO CLOUDS BELOW 12,000 FEET WITH NO
SIGNIFICANT WEATHER AND/OR OBSTRUCTIONS TO VISIBILITY.

WIZ001-002-006>008-014>016-023>028-300000-
NORTHWEST WISCONSIN

CITY           SKY/WX    TMP DP  RH WIND       PRES   REMARKS
SUPERIOR ARPT  MOSUNNY   82  70  67 W5        30.09F HX  86
ASHLAND        PTSUNNY   84  71  65 W6        30.11F HX  89
HAYWARD        SUNNY     82  67  60 SW7       30.14F HX  84
SIREN          CLOUDY    82  70  66 SW7       30.12F HX  85
CUMBERLAND     MOSUNNY   79  68  69 S9        30.16F HX  81
RICE LAKE      MOSUNNY   79  68  70 S5        30.17F HX  81
CHETEK         NOT AVBL
LADYSMITH      MOSUNNY   80  70  72 SW6       30.19S HX  83
EAU CLAIRE     MOSUNNY   83  71  67 SW7       30.14F HX  87
MENOMONIE      MOSUNNY   84  70  62 SW9       30.15S HX  88
NEW RICHMOND   MOSUNNY   81  69  67 SW7       30.14F HX  84
OSCEOLA        CLOUDY    83  70  65 S6        30.16F HX  87
$$

WIZ003>005-009-010-017-018-300000-
NORTH CENTRAL WISCONSIN

CITY           SKY/WX    TMP DP  RH WIND       PRES   REMARKS
MANITOWISH WTR NOT AVBL
ARBOR VITAE    MOSUNNY   80  71  74 SW9       30.18R HX  83
WOODRUFF       MOSUNNY   80  71  74 SW9       30.18R HX  83
RHINELANDER    MOSUNNY   80  71  74 SW7       30.20S HX  84
EAGLE RIVER    MOSUNNY   73  61  67 S3        30.18R
LAND O LAKES   CLOUDY    80  68  67 SW3       30.18S HX  82
PHILLIPS       CLOUDY    77  68  74 SW6       30.18R
TOMAHAWK       MOSUNNY   79  69  70 SW3       30.19S HX  82
MEDFORD        MOSUNNY   79  73  82 SW7       30.19S HX  82
MERRILL        MOSUNNY   80  72  76 SW7       30.19S HX  83
$$

WIZ029-030-035-036-043>047-300000-
CENTRAL WISCONSIN

CITY           SKY/WX    TMP DP  RH WIND       PRES   REMARKS
WAUSAU         PTSUNNY   82  69  64 SW9       30.17S HX  85
MOSINEE        SUNNY     79  70  73 SW8       30.19  HX  81
MARSHFIELD     MOSUNNY   82  70  66 W7        30.18S HX  86
STEVENS POINT  CLOUDY    79  69  69 SW7       30.19S HX  82
WAUPACA        PTSUNNY   82  71  68 CALM      30.18S HX  87
WAUTOMA        CLOUDY    81  71  71 SW5       30.18S HX  85
WISC RAPIDS    CLOUDY    80  71  74 S6        30.19S HX  84
CAMP DOUGLAS   PTSUNNY   81  72  74 SW3       30.18R HX  84
$$

WIZ011>013-019>022-031-037>040-048>050-300000-
NORTHEAST WISCONSIN

CITY           SKY/WX    TMP DP  RH WIND       PRES   REMARKS
ANTIGO         MOSUNNY   78  68  71 SW8       30.20S HX  80
SHAWANO        MOSUNNY   83  70  66 CALM      30.17S HX  86
OCONTO         NOT AVBL
STURGEON BAY   MOSUNNY   76  67  73 S6        30.18S
GREEN BAY      SUNNY     81  71  71 SW5       30.17R HX  85
MANITOWOC      SUNNY     75  61  61 S9        30.19R
APPLETON       PTSUNNY   81  66  61 SW7       30.17S HX  83
CLINTONVILLE   MOSUNNY   81  68  65 SW6       30.16F HX  83
OSHKOSH        CLOUDY    81  70  69 SW7       30.17R HX  84
$$

WIZ032>034-041-042-053>061-300000-
SOUTHWEST WISCONSIN

CITY           SKY/WX    TMP DP  RH WIND       PRES   REMARKS
LA CROSSE      CLOUDY    82  73  74 S6        30.15S HX  87
SPARTA         CLOUDY    79  71  76 SW5       30.18S HX  82
VIROQUA        CLOUDY    77  71  82 S3        30.19F
BOSCOBEL       CLOUDY    80  73  79 CALM      30.17S HX  84
PRAIRIE DU CHI CLOUDY    77  71  81 CALM      30.16S
PLATTEVILLE    CLOUDY    79  76  89 CALM      30.19R HX  83
$$

WIZ056-057-062-063-064-067-068-300000-
SOUTH CENTRAL WISCONSIN

CITY           SKY/WX    TMP DP  RH WIND       PRES   REMARKS
REEDSBURG      NOT AVBL
BARABOO/DELLS  PTSUNNY   78  68  72 S6        30.18F HX  80
LONE ROCK      CLOUDY    80  73  79 NE3       30.17F HX  84
MINERAL POINT  CLOUDY    81  73  78 CALM      30.19S HX  85
MADISON        CLOUDY    82  71  69 VRB3      30.18S HX  86
MIDDLETON      PTSUNNY   80  72  76 NE3       30.20R HX  85
WATERTOWN      CLOUDY    80  72  77 CALM      30.19R HX  83
MONROE         CLOUDY    81  72  74 S3        30.19R HX  84
JANESVILLE     PTSUNNY   81  70  69 SE20G25   30.18R HX  84
$$

WIZ051-052-058>065-066-070>072-300000-
SOUTHEAST WISCONSIN

CITY           SKY/WX    TMP DP  RH WIND       PRES   REMARKS
MILWAUKEE      PTSUNNY   79  69  71 SE3       30.19S HX  81
WAUKESHA       MOSUNNY   77  66  69 SE8       30.21R
MILWAUKEE/TIMM SUNNY     79  61  53 SE6       30.21R HX  80
RACINE         MOSUNNY   77  70  79 SE5       30.21R
BURLINGTON     PTSUNNY   77  69  76 SE6       30.20R
KENOSHA        CLOUDY    78  71  79 E6        30.20R HX  80
FOND DU LAC    CLOUDY    80  71  74 S3        30.18R HX  84
SHEBOYGAN      MOSUNNY   76  63  64 S9        30.18F
WEST BEND      MOSUNNY   75  63  64 CALM      30.20S
JUNEAU         PTSUNNY   79  70  74 S7        30.20S HX  82
$$

LSZ147-162-300000-
LAKE SUPERIOR

STATION/POSITION TIME  TEMP    WIND        PRES    WAVE
                       AIR SEA DIR/SP/G            HT/PER
                 (UTC) (F)     (DEG/KT/KT) (MB)    (FT/S)
W MID LAKE BUOY  2250   71 69  270/  6/  6 1018.7R   1
DEVILS ISLAND    2300   74     220/ 10/ 12 1019.0F
PORT WING        2200   80     240/  7/ 10 1019.6
SAXON HARBOR     2200   78      20/  1/  2 1020.0R
$$

LMZ867-665-643>646-300000-
LAKE MICHIGAN

STATION/POSITION TIME  TEMP    WIND        PRES    WAVE
                       AIR SEA DIR/SP/G            HT/PER
                 (UTC) (F)     (DEG/KT/KT) (MB)    (FT/S)
CHAMBERS ISLAND  2200   79     130/  4/  8 1021.0S
S GREEN BAY BUOY 2230   77 74  150/  4/  4 1021.0R
N MID LAKE BUOY  2250   72 71  210/ 10/ 12 1021.2F   1/ 3
NORTHPORT PIER   2200   75     150/  8/ 13 1021.3F
SISTER BAY       2207   80     190/ 14/ 16   N/A
ALGOMA LAKESHORE 2200          200/  7/  8   N/A
KEWAUNEE LAKESHO 2200   67                   N/A
SHEBOYGAN LAKESH 2300   72     190/ 10/ 10 1021.5F
PORT WASHINGTON  2200   76     190/  4/  5 1023.0F
ATWATER BUOY     2200   72     240/  2/  2   N/A
MILWAUKEE LAKESH 2210   73      30/  2/  2   N/A
S MID LAKE BUOY  2250   77 79   60/  4/  6 1021.7S   0
KENOSHA   LAKESH 2300   73     350/  3/  4 1022.0R
$$

TC  - TEMPERATURE IN CELSIUS
VSB - VISIBILITY IN STATUTE MILES
WCI - WIND CHILL INDEX
HX  - HEAT INDEX





USA.gov is the U.S. government's official web portal to all federal, state and local government web resources and services.